Weather observations for the past three days for
Russell, Russell Municipal Airport
Imperial (Metric)
Date Time (cdt) Wind (mph) Vis. (mi.) Weather Sky Cond. Temperature (ºF) Relative Humidity Wind Chill (°F) Heat Index (°F) Pressure Precipitation (in)
Air Dwpt 6 hour altimeter (in) sea level (mb) 1 hr 3 hr 6 hr
Max. Min.
23 06:53 W 5 4.00 Fog/Mist FEW003 61 61 66 60.1 100% 30.08 1017.4
23 05:53 W 5 1.00 Fog/Mist VV003 61 60.1 97% 30.08 1017.7
23 04:53 SE 5 6.00 Fog/Mist CLR 62.1 61 96% 30.06 1017.1
23 03:53 Calm 8.00 A Few Clouds FEW060 64.9 63 93% 30.06 1016.7
23 02:53 Calm 9.00 Partly Cloudy SCT049 64 63 96% 30.07 1016.6
23 01:53 E 6 7.00 A Few Clouds FEW070 63 63 100% 30.07 1016.8
23 00:53 NE 5 9.00 Mostly Cloudy BKN070 64 63 72 64 96% 30.08 1017.0
22 23:53 N 3 10.00 A Few Clouds FEW070 66.9 64.9 93% 30.07 1016.6
22 22:53 SW 3 10.00 Partly Cloudy SCT065 66.9 64.9 93% 30.06 1016.6
22 21:53 S 5 10.00 Overcast OVC110 68 64.9 90% 30.06 1016.4
22 20:53 SE 3 10.00 Mostly Cloudy BKN110 70 64.9 84% 30.05 1016.4
22 19:53 S 7 10.00 Fair CLR 71.1 64 79% 30.04 1016.2
22 18:53 SE 10 10.00 Fair CLR 72 64 87.1 68 76% 30.03 1015.6 0.29
22 17:53 SE 12 10.00 A Few Clouds FEW100 69.1 66 90% 30.03 1016.1
22 16:53 S 13 8.00 Thunderstorm in Vicinity Light Rain SCT028 BKN055 OVC090 69.1 66 90% 30.04 1016.4 0.29
22 15:53 NE 14 10.00 Thunderstorm OVC060 77 62.1 60% 79 30.03 1015.8
22 14:53 E 8 10.00 Partly Cloudy FEW050 SCT070 84.9 59 42% 85 30.03 1015.3
22 13:53 S 9 10.00 Mostly Cloudy BKN055 82.9 60.1 46% 83 30.05 1016.0
22 12:53 Calm 10.00 Fair CLR 82.9 59 84 64 44% 83 30.06 1016.5
22 11:53 SE 3 10.00 A Few Clouds FEW070 82 60.1 47% 82 30.09 1017.4
22 09:53 S 6 10.00 Mostly Cloudy SCT060 BKN070 73.9 61 64% 30.11 1018.4
22 08:53 S 5 10.00 Mostly Cloudy SCT060 BKN095 68 61 78% 30.11 1018.4
22 07:53 S 3 10.00 A Few Clouds FEW085 64.9 60.1 84% 30.1 1018.0
22 06:53 SW 3 10.00 Overcast FEW050 OVC060 64 60.1 66.9 61 87% 30.09 1017.5
22 05:53 S 8 10.00 Fair CLR 61 57.9 90% 30.08 1017.3
22 04:53 S 8 10.00 Fair CLR 63 57.9 84% 30.08 1016.9
22 03:53 S 8 10.00 Fair CLR 63 57.9 84% 30.09 1017.5
22 02:53 S 8 10.00 Fair CLR 64 57.9 81% 30.1 1017.9
22 01:53 S 8 10.00 Fair CLR 66 59 78% 30.11 1018.2
22 00:53 SE 8 10.00 Fair CLR 66.9 60.1 84 66.9 79% 30.13 1019.0
21 23:53 SE 9 10.00 Fair CLR 69.1 60.1 73% 30.13 1018.9
21 22:53 SE 8 10.00 Fair CLR 70 60.1 71% 30.12 1018.7
21 21:53 E 7 10.00 Fair CLR 72 60.1 66% 30.1 1017.9
21 20:53 E 8 10.00 A Few Clouds FEW100 75 60.1 60% 77 30.09 1017.6
21 19:53 E 7 10.00 Partly Cloudy SCT110 81 59 47% 81 30.08 1017.2
21 18:53 NE 9 10.00 Fair CLR 84 57 86 79 40% 83 30.07 1016.9
21 17:53 NE 9 10.00 Fair CLR 84.9 57.9 40% 84 30.07 1017.0
21 16:53 NE 10 G 16 10.00 Fair CLR 86 57.9 39% 85 30.09 1017.4
21 15:53 E 10 G 18 10.00 A Few Clouds FEW050 84.9 57.9 40% 84 30.1 1017.9
21 14:53 Vrbl 3 10.00 A Few Clouds FEW049 82 59 46% 82 30.12 1018.7
21 13:53 NE 9 10.00 Fair CLR 81 59 47% 81 30.15 1019.5
21 12:53 NE 6 10.00 Partly Cloudy SCT036 79 60.1 79 61 52% 80 30.16 1020.0
21 10:53 NE 6 10.00 Fair CLR 75 60.1 60% 77 30.18 1020.6
21 09:53 Vrbl 3 10.00 Overcast BKN070 OVC090 71.1 60.1 68% 30.17 1020.7
21 08:53 E 3 10.00 Overcast SCT060 OVC090 66 62.1 87% 30.18 1020.9
21 07:53 NE 3 10.00 Overcast BKN043 OVC055 63 60.1 90% 30.17 1020.5
21 06:53 N 3 9.00 Overcast OVC055 61 57.9 63 57.9 90% 30.16 1020.1
21 05:53 N 5 9.00 Fair CLR 59 57.9 96% 30.14 1019.6
21 04:53 NW 6 10.00 Fair CLR 59 57.9 96% 30.13 1019.1
21 03:53 Calm 10.00 Fair CLR 61 57 87% 30.13 1018.7
21 02:53 NE 5 10.00 Fair CLR 62.1 59 90% 30.14 1019.2
21 01:53 SE 6 10.00 Fair CLR 63 59 87% 30.14 1019.3
21 00:53 E 8 10.00 A Few Clouds FEW055 63 59 79 63 87% 30.14 1019.4
20 23:53 E 7 10.00 Fair CLR 64 60.1 87% 30.14 1019.2
20 22:53 E 7 10.00 Fair CLR 64.9 61 87% 30.13 1018.8
20 21:53 E 6 10.00 Fair CLR 66.9 62.1 84% 30.12 1018.6
20 20:53 E 8 10.00 Fair CLR 72 62.1 71% 30.09 1017.6
20 19:53 E 10 10.00 Mostly Cloudy FEW037 BKN049 75.9 63 64% 78 30.09 1017.4
20 18:53 NE 10 10.00 Overcast SCT038 OVC047 78.1 62.1 82.9 78.1 58% 80 30.07 1017.0
20 17:53 NE 15 G 21 10.00 Overcast BKN039 OVC049 79 63 58% 81 30.07 1016.9
20 16:53 E 13 10.00 Mostly Cloudy FEW037 BKN047 80.1 63 56% 81 30.07 1016.6
20 15:53 NE 15 G 20 10.00 Mostly Cloudy BKN042 82.9 63 51% 84 30.07 1016.5
20 14:53 NE 12 G 21 10.00 Mostly Cloudy BKN039 82 63 53% 83 30.07 1016.5
20 13:53 N 14 10.00 Mostly Cloudy BKN045 82 63 53% 83 30.07 1016.6
20 12:53 NE 12 G 21 10.00 Mostly Cloudy BKN039 82 62.1 82.9 66.9 51% 83 30.07 1016.5
20 11:53 N 10 G 18 10.00 Partly Cloudy SCT036 82 62.1 51% 83 30.06 1016.2
20 10:53 NE 8 10.00 Fair CLR 79 61 54% 80 30.05 1016.0
20 09:53 Vrbl 3 10.00 Fair CLR 75.9 60.1 58% 78 30.06 1016.0
20 08:53 SE 6 10.00 Fair CLR 72 61 68% 30.05 1015.8
Date Time (cdt) Wind (mph) Vis. (mi.) Weather Sky Cond. Air Dwpt Max. Min. Relative Humidity Wind Chill (°F) Heat Index (°F) altimeter (in) sea level (mb) 1 hr 3 hr 6 hr
6 hour
Temperature (ºF) Pressure Precipitation (in)